VOZ1500 YBHM-YBBN

Flight info

Callsign VOZ1500
Flight time 1h 17m
Altitude 37000
Route OVRON B462 MK V153 MUNAR/N0457F370 Y61 RUROX Y177 BN
Aircraft B738/M-SDE2E3FGHIRWXY/LB1

Departure

Time 2026-04-28 18:14
Airport Hamilton Island Airport (YBHM)

Arrival

Time 2026-04-28 19:32
Airport Brisbane International Airport (YBBN)
Time Latitude Longitude Altitude Speed Heading
2026-04-28 17:53 -20.35253 148.94990 19 ft 0 kts 144°
2026-04-28 18:09 -20.35253 148.94991 19 ft 1 kts 144°
2026-04-28 18:09 -20.35264 148.94987 22 ft 4 kts 204°
2026-04-28 18:10 -20.35283 148.94970 21 ft 2 kts 255°
2026-04-28 18:10 -20.35271 148.94948 21 ft 6 kts 321°
2026-04-28 18:10 -20.35249 148.94902 21 ft 8 kts 291°
2026-04-28 18:10 -20.35233 148.94860 19 ft 0 kts 270°
2026-04-28 18:11 -20.35234 148.94855 19 ft 4 kts 256°
2026-04-28 18:11 -20.35267 148.94785 20 ft 12 kts 274°
2026-04-28 18:12 -20.35200 148.94726 18 ft 15 kts 324°
2026-04-28 18:12 -20.35100 148.94694 18 ft 13 kts 353°
2026-04-28 18:12 -20.35088 148.94657 19 ft 9 kts 230°
2026-04-28 18:12 -20.35116 148.94659 18 ft 0 kts 143°
2026-04-28 18:14 -20.35293 148.94800 20 ft 75 kts 143°
2026-04-28 18:14 -20.35928 148.95310 86 ft 145 kts 142°
2026-04-28 18:14 -20.36745 148.95952 1040 ft 141 kts 142°
2026-04-28 18:15 -20.37693 148.96251 1984 ft 155 kts 170°
2026-04-28 18:15 -20.38850 148.96477 2359 ft 185 kts 162°
2026-04-28 18:15 -20.40186 148.96835 2655 ft 211 kts 161°
2026-04-28 18:15 -20.41632 148.97230 3212 ft 220 kts 161°
2026-04-28 18:16 -20.43139 148.97644 3836 ft 223 kts 162°
2026-04-28 18:16 -20.44666 148.98066 4382 ft 236 kts 161°
2026-04-28 18:16 -20.46322 148.98530 4838 ft 253 kts 162°
2026-04-28 18:16 -20.48027 148.99005 5804 ft 254 kts 162°
2026-04-28 18:17 -20.49768 148.99492 6612 ft 260 kts 161°
2026-04-28 18:17 -20.51533 148.99988 7480 ft 263 kts 162°
2026-04-28 18:17 -20.53324 149.00492 8285 ft 269 kts 163°
2026-04-28 18:17 -20.55158 149.01011 8996 ft 278 kts 163°
2026-04-28 18:18 -20.57010 149.01534 9843 ft 281 kts 164°
2026-04-28 18:18 -20.58909 149.02070 10566 ft 288 kts 165°
2026-04-28 18:18 -20.60936 149.02644 10772 ft 315 kts 165°
2026-04-28 18:18 -20.62404 149.03060 10896 ft 332 kts 165°
2026-04-28 18:19 -20.65487 149.03933 11301 ft 356 kts 165°
2026-04-28 18:19 -20.67914 149.04621 11915 ft 364 kts 166°
2026-04-28 18:19 -20.70384 149.05321 12542 ft 370 kts 166°
2026-04-28 18:19 -20.72900 149.06035 13145 ft 378 kts 167°
2026-04-28 18:20 -20.75458 149.06760 13785 ft 383 kts 168°
2026-04-28 18:20 -20.78053 149.07498 14496 ft 384 kts 167°
2026-04-28 18:20 -20.80650 149.08240 15123 ft 389 kts 168°
2026-04-28 18:20 -20.83290 149.08994 15718 ft 393 kts 168°
2026-04-28 18:21 -20.85942 149.09749 16424 ft 395 kts 168°
2026-04-28 18:21 -20.88610 149.10507 16994 ft 399 kts 168°
2026-04-28 18:21 -20.91302 149.11271 17581 ft 403 kts 167°
2026-04-28 18:21 -20.94020 149.12046 18265 ft 404 kts 168°
2026-04-28 18:22 -20.96745 149.12826 18736 ft 409 kts 167°
2026-04-28 18:22 -20.99497 149.13612 19305 ft 410 kts 167°
2026-04-28 18:22 -21.02218 149.14389 19923 ft 410 kts 168°
2026-04-28 18:22 -21.05018 149.15188 20446 ft 413 kts 168°
2026-04-28 18:23 -21.07763 149.15972 20937 ft 416 kts 168°
2026-04-28 18:23 -21.10575 149.16775 21432 ft 418 kts 168°
2026-04-28 18:23 -21.13392 149.17581 21927 ft 421 kts 168°
2026-04-28 18:23 -21.16233 149.18393 22420 ft 423 kts 168°
2026-04-28 18:24 -21.19087 149.19217 22916 ft 426 kts 167°
2026-04-28 18:24 -21.21013 149.19788 23230 ft 427 kts 167°
2026-04-28 18:24 -21.24826 149.20932 23779 ft 431 kts 167°
2026-04-28 18:24 -21.27726 149.21805 24134 ft 434 kts 167°
2026-04-28 18:25 -21.30648 149.22684 24500 ft 437 kts 167°
2026-04-28 18:25 -21.33581 149.23565 24859 ft 439 kts 167°
2026-04-28 18:25 -21.36533 149.24450 25245 ft 441 kts 167°
2026-04-28 18:26 -21.42464 149.26228 25984 ft 445 kts 167°
2026-04-28 18:26 -21.45458 149.27126 26332 ft 447 kts 167°
2026-04-28 18:26 -21.48458 149.28025 26675 ft 449 kts 167°
2026-04-28 18:26 -21.51446 149.29035 27007 ft 452 kts 163°
2026-04-28 18:27 -21.54399 149.30221 27337 ft 455 kts 161°
2026-04-28 18:27 -21.57357 149.31477 27659 ft 457 kts 161°
2026-04-28 18:27 -21.60309 149.32755 27978 ft 459 kts 161°
2026-04-28 18:27 -21.63283 149.34041 28290 ft 461 kts 161°
2026-04-28 18:28 -21.66272 149.35324 28602 ft 463 kts 161°
2026-04-28 18:28 -21.69236 149.36587 28899 ft 465 kts 161°
2026-04-28 18:28 -21.72257 149.37866 29198 ft 466 kts 161°
2026-04-28 18:28 -21.75284 149.39142 29484 ft 468 kts 161°
2026-04-28 18:29 -21.78321 149.40421 29760 ft 470 kts 161°
2026-04-28 18:29 -21.81378 149.41707 30069 ft 471 kts 161°
2026-04-28 18:29 -21.84429 149.42991 30435 ft 470 kts 161°
2026-04-28 18:29 -21.87466 149.44271 30860 ft 467 kts 161°
2026-04-28 18:30 -21.90483 149.45544 31312 ft 463 kts 161°
2026-04-28 18:30 -21.92464 149.46380 31620 ft 461 kts 161°
2026-04-28 18:30 -21.96441 149.48058 32126 ft 458 kts 161°
2026-04-28 18:30 -21.99414 149.49313 32433 ft 458 kts 161°
2026-04-28 18:31 -22.02381 149.50566 32772 ft 457 kts 160°
2026-04-28 18:31 -22.05336 149.51815 33145 ft 455 kts 160°
2026-04-28 18:31 -22.08271 149.53055 33542 ft 452 kts 160°
2026-04-28 18:31 -22.11161 149.54277 33896 ft 451 kts 160°
2026-04-28 18:32 -22.14083 149.55513 34202 ft 450 kts 160°
2026-04-28 18:32 -22.16995 149.56746 34467 ft 449 kts 160°
2026-04-28 18:32 -22.19903 149.57978 34737 ft 449 kts 160°
2026-04-28 18:32 -22.22805 149.59207 34981 ft 448 kts 160°
2026-04-28 18:33 -22.25714 149.60440 35202 ft 449 kts 160°
2026-04-28 18:33 -22.28621 149.61672 35418 ft 449 kts 160°
2026-04-28 18:33 -22.31531 149.62907 35681 ft 448 kts 160°
2026-04-28 18:33 -22.34430 149.64138 35963 ft 446 kts 160°
2026-04-28 18:34 -22.37317 149.65364 36223 ft 445 kts 160°
2026-04-28 18:34 -22.40197 149.66588 36451 ft 445 kts 160°
2026-04-28 18:34 -22.43084 149.67815 36668 ft 445 kts 160°
2026-04-28 18:34 -22.45964 149.69039 36912 ft 444 kts 160°
2026-04-28 18:35 -22.48842 149.70264 37142 ft 444 kts 160°
2026-04-28 18:35 -22.54631 149.72727 37146 ft 448 kts 160°
2026-04-28 18:36 -22.60424 149.75196 37141 ft 446 kts 160°
2026-04-28 18:36 -22.66196 149.77658 37144 ft 444 kts 160°
2026-04-28 18:37 -22.71899 149.80093 37144 ft 443 kts 160°
2026-04-28 18:37 -22.77626 149.82539 37152 ft 442 kts 160°
2026-04-28 18:38 -22.83351 149.84987 37157 ft 442 kts 161°
2026-04-28 18:38 -22.89073 149.87436 37154 ft 443 kts 161°
2026-04-28 18:39 -22.94824 149.89900 37158 ft 444 kts 160°
2026-04-28 18:39 -23.00588 149.92371 37158 ft 447 kts 160°
2026-04-28 18:40 -23.06351 149.94844 37161 ft 448 kts 160°
2026-04-28 18:40 -23.12160 149.97340 37158 ft 450 kts 160°
2026-04-28 18:41 -23.17995 149.99849 37162 ft 451 kts 161°
2026-04-28 18:41 -23.23852 150.02370 37161 ft 452 kts 161°
2026-04-28 18:42 -23.29707 150.04893 37167 ft 453 kts 161°
2026-04-28 18:42 -23.35569 150.07421 37162 ft 453 kts 161°
2026-04-28 18:43 -23.41391 150.09934 37164 ft 452 kts 161°
2026-04-28 18:43 -23.47236 150.12459 37167 ft 451 kts 161°
2026-04-28 18:44 -23.53075 150.14984 37164 ft 451 kts 161°
2026-04-28 18:44 -23.61819 150.18770 37170 ft 450 kts 161°
2026-04-28 18:45 -23.67630 150.21289 37174 ft 449 kts 161°
2026-04-28 18:45 -23.73445 150.23812 37172 ft 449 kts 161°
2026-04-28 18:46 -23.79262 150.26339 37180 ft 449 kts 161°
2026-04-28 18:46 -23.85036 150.28849 37178 ft 450 kts 161°
2026-04-28 18:47 -23.90850 150.31379 37184 ft 450 kts 161°
2026-04-28 18:47 -23.96678 150.33918 37184 ft 450 kts 161°
2026-04-28 18:48 -24.02502 150.36457 37183 ft 451 kts 161°
2026-04-28 18:48 -24.08328 150.39000 37191 ft 451 kts 162°
2026-04-28 18:49 -24.12240 150.40708 37191 ft 451 kts 162°
2026-04-28 18:49 -24.20012 150.44107 37189 ft 452 kts 162°
2026-04-28 18:50 -24.25854 150.46664 37202 ft 452 kts 162°
2026-04-28 18:50 -24.31706 150.49229 37194 ft 453 kts 162°
2026-04-28 18:51 -24.37558 150.51796 37204 ft 453 kts 162°
2026-04-28 18:51 -24.43378 150.54352 37198 ft 453 kts 162°
2026-04-28 18:52 -24.49221 150.56970 37202 ft 455 kts 158°
2026-04-28 18:52 -24.54645 150.60640 37204 ft 459 kts 149°
2026-04-28 18:53 -24.59936 150.64596 37214 ft 459 kts 149°
2026-04-28 18:53 -24.65236 150.68534 37212 ft 459 kts 150°
2026-04-28 18:54 -24.70549 150.72438 37212 ft 459 kts 150°
2026-04-28 18:54 -24.75863 150.76327 37227 ft 459 kts 150°
2026-04-28 18:55 -24.80288 150.79566 37219 ft 460 kts 150°
2026-04-28 18:55 -24.86515 150.84131 37216 ft 459 kts 150°
2026-04-28 18:56 -24.91838 150.88039 37222 ft 459 kts 150°
2026-04-28 18:56 -24.97152 150.91945 37228 ft 459 kts 150°
2026-04-28 18:57 -25.02438 150.95835 37236 ft 459 kts 149°
2026-04-28 18:57 -25.07758 150.99752 37221 ft 460 kts 149°
2026-04-28 18:58 -25.12176 151.03010 37218 ft 459 kts 149°
2026-04-28 18:58 -25.17527 151.06958 37225 ft 460 kts 149°
2026-04-28 18:59 -25.22813 151.10863 37231 ft 460 kts 149°
2026-04-28 18:59 -25.28143 151.14805 37228 ft 461 kts 149°
2026-04-28 19:00 -25.33477 151.18754 37246 ft 462 kts 149°
2026-04-28 19:00 -25.38818 151.22713 37232 ft 462 kts 149°
2026-04-28 19:01 -25.44166 151.26681 37229 ft 463 kts 149°
2026-04-28 19:01 -25.49520 151.30659 37226 ft 463 kts 149°
2026-04-28 19:02 -25.54827 151.34605 37232 ft 462 kts 149°
2026-04-28 19:02 -25.60171 151.38583 37233 ft 462 kts 149°
2026-04-28 19:03 -25.65511 151.42564 37245 ft 462 kts 149°
2026-04-28 19:03 -25.70852 151.46548 37235 ft 462 kts 149°
2026-04-28 19:04 -25.76108 151.50695 37233 ft 465 kts 143°
2026-04-28 19:04 -25.80975 151.55491 36682 ft 472 kts 140°
2026-04-28 19:05 -25.83380 151.57947 36136 ft 470 kts 140°
2026-04-28 19:05 -25.85786 151.60399 35500 ft 470 kts 141°
2026-04-28 19:05 -25.88205 151.62845 34858 ft 470 kts 141°
2026-04-28 19:05 -25.90643 151.65291 34161 ft 472 kts 141°
2026-04-28 19:06 -25.93060 151.67702 33400 ft 473 kts 141°
2026-04-28 19:06 -25.94615 151.69250 33233 ft 472 kts 140°
2026-04-28 19:06 -25.97843 151.72459 32359 ft 464 kts 141°
2026-04-28 19:06 -26.00237 151.74842 31839 ft 460 kts 141°
2026-04-28 19:07 -26.02608 151.77203 31396 ft 454 kts 141°
2026-04-28 19:07 -26.04951 151.79537 30913 ft 450 kts 141°
2026-04-28 19:07 -26.07269 151.81848 30448 ft 445 kts 141°
2026-04-28 19:07 -26.09567 151.84139 29914 ft 441 kts 141°
2026-04-28 19:08 -26.11848 151.86415 29387 ft 436 kts 141°
2026-04-28 19:08 -26.14087 151.88651 28912 ft 430 kts 141°
2026-04-28 19:08 -26.16275 151.90837 28434 ft 425 kts 141°
2026-04-28 19:08 -26.18488 151.93049 27959 ft 420 kts 141°
2026-04-28 19:09 -26.20655 151.95215 27485 ft 416 kts 141°
2026-04-28 19:09 -26.22773 151.97334 27015 ft 413 kts 140°
2026-04-28 19:09 -26.24902 151.99465 26550 ft 409 kts 140°
2026-04-28 19:09 -26.27009 152.01574 26093 ft 406 kts 140°
2026-04-28 19:10 -26.29103 152.03672 25642 ft 403 kts 140°
2026-04-28 19:10 -26.31182 152.05757 25195 ft 400 kts 140°
2026-04-28 19:10 -26.33237 152.07818 24760 ft 397 kts 140°
2026-04-28 19:10 -26.35282 152.09871 24320 ft 394 kts 139°
2026-04-28 19:11 -26.37321 152.11917 23853 ft 392 kts 140°
2026-04-28 19:11 -26.39349 152.13955 23352 ft 390 kts 139°
2026-04-28 19:11 -26.41352 152.15969 22857 ft 386 kts 139°
2026-04-28 19:11 -26.43332 152.17960 22423 ft 382 kts 139°
2026-04-28 19:12 -26.45295 152.19935 21974 ft 378 kts 139°
2026-04-28 19:12 -26.47238 152.21891 21547 ft 374 kts 139°
2026-04-28 19:12 -26.49166 152.23833 21116 ft 371 kts 139°
2026-04-28 19:12 -26.51072 152.25753 20689 ft 368 kts 139°
2026-04-28 19:13 -26.52959 152.27656 20268 ft 364 kts 139°
2026-04-28 19:13 -26.54840 152.29552 19850 ft 362 kts 138°
2026-04-28 19:13 -26.56699 152.31429 19441 ft 359 kts 138°
2026-04-28 19:13 -26.58543 152.33290 19029 ft 356 kts 138°
2026-04-28 19:14 -26.60374 152.35139 18621 ft 354 kts 138°
2026-04-28 19:14 -26.62199 152.36983 18173 ft 352 kts 138°
2026-04-28 19:14 -26.64006 152.38813 17767 ft 348 kts 137°
2026-04-28 19:14 -26.65753 152.40605 17515 ft 343 kts 137°
2026-04-28 19:15 -26.67503 152.42411 17255 ft 342 kts 137°
2026-04-28 19:15 -26.69255 152.44223 16948 ft 343 kts 137°
2026-04-28 19:15 -26.70998 152.46024 16573 ft 339 kts 137°
2026-04-28 19:15 -26.72164 152.47229 16294 ft 338 kts 137°
2026-04-28 19:16 -26.74441 152.49582 15766 ft 334 kts 137°
2026-04-28 19:16 -26.76146 152.51344 15374 ft 332 kts 137°
2026-04-28 19:16 -26.77844 152.53100 14981 ft 331 kts 137°
2026-04-28 19:16 -26.79527 152.54841 14583 ft 329 kts 137°
2026-04-28 19:17 -26.81207 152.56579 14186 ft 328 kts 137°
2026-04-28 19:17 -26.82883 152.58312 13755 ft 327 kts 137°
2026-04-28 19:17 -26.84549 152.60037 13326 ft 325 kts 137°
2026-04-28 19:17 -26.86209 152.61755 12918 ft 323 kts 137°
2026-04-28 19:18 -26.87773 152.63553 12509 ft 322 kts 128°
2026-04-28 19:18 -26.88973 152.65662 12122 ft 320 kts 121°
2026-04-28 19:18 -26.90070 152.67787 11725 ft 319 kts 120°
2026-04-28 19:18 -26.91177 152.69947 11327 ft 318 kts 120°
2026-04-28 19:19 -26.92279 152.72093 10933 ft 316 kts 120°
2026-04-28 19:19 -26.93365 152.74201 10771 ft 308 kts 121°
2026-04-28 19:19 -26.94435 152.76270 10456 ft 305 kts 121°
2026-04-28 19:19 -26.95499 152.78323 10059 ft 305 kts 121°
2026-04-28 19:20 -26.96563 152.80372 9657 ft 303 kts 120°
2026-04-28 19:20 -26.97623 152.82413 9290 ft 301 kts 120°
2026-04-28 19:20 -26.98672 152.84432 8938 ft 298 kts 121°
2026-04-28 19:20 -26.99710 152.86429 8584 ft 295 kts 121°
2026-04-28 19:21 -27.00739 152.88410 8238 ft 292 kts 121°
2026-04-28 19:21 -27.01755 152.90366 7897 ft 289 kts 120°
2026-04-28 19:21 -27.02761 152.92305 7570 ft 286 kts 120°
2026-04-28 19:21 -27.03754 152.94219 7257 ft 282 kts 120°
2026-04-28 19:22 -27.04725 152.96091 6955 ft 279 kts 120°
2026-04-28 19:22 -27.05380 152.97355 6743 ft 277 kts 120°
2026-04-28 19:22 -27.06652 152.99808 6352 ft 272 kts 120°
2026-04-28 19:22 -27.07597 153.01632 6063 ft 269 kts 120°
2026-04-28 19:23 -27.08530 153.03434 5803 ft 265 kts 120°
2026-04-28 19:23 -27.09447 153.05206 5549 ft 261 kts 120°
2026-04-28 19:23 -27.10353 153.06958 5303 ft 257 kts 120°
2026-04-28 19:23 -27.11245 153.08683 5080 ft 253 kts 120°
2026-04-28 19:24 -27.12095 153.10327 4889 ft 242 kts 120°
2026-04-28 19:24 -27.12917 153.11918 4631 ft 233 kts 120°
2026-04-28 19:24 -27.13703 153.13440 4519 ft 218 kts 121°
2026-04-28 19:24 -27.14444 153.14875 4390 ft 206 kts 121°
2026-04-28 19:25 -27.15141 153.16226 4286 ft 194 kts 121°
2026-04-28 19:25 -27.15797 153.17497 4180 ft 182 kts 121°
2026-04-28 19:25 -27.16412 153.18688 4127 ft 174 kts 121°
2026-04-28 19:25 -27.17023 153.19873 4060 ft 175 kts 121°
2026-04-28 19:26 -27.17625 153.21038 3983 ft 173 kts 121°
2026-04-28 19:26 -27.18421 153.22013 3933 ft 170 kts 146°
2026-04-28 19:26 -27.19511 153.22554 3816 ft 176 kts 163°
2026-04-28 19:26 -27.20765 153.22633 3610 ft 185 kts 188°
2026-04-28 19:27 -27.21958 153.22096 3408 ft 186 kts 195°
2026-04-28 19:27 -27.23159 153.21572 3151 ft 184 kts 197°
2026-04-28 19:27 -27.24303 153.20963 2930 ft 179 kts 200°
2026-04-28 19:27 -27.25412 153.20329 2685 ft 179 kts 200°
2026-04-28 19:28 -27.26520 153.19693 2449 ft 178 kts 200°
2026-04-28 19:28 -27.27597 153.19075 2203 ft 168 kts 200°
2026-04-28 19:28 -27.28604 153.18498 1979 ft 157 kts 200°
2026-04-28 19:28 -27.29574 153.17945 1773 ft 156 kts 200°
2026-04-28 19:29 -27.30487 153.17421 1611 ft 138 kts 201°
2026-04-28 19:29 -27.31027 153.17111 1482 ft 128 kts 201°
2026-04-28 19:29 -27.32112 153.16494 1253 ft 131 kts 202°
2026-04-28 19:29 -27.32924 153.16028 1029 ft 130 kts 202°
2026-04-28 19:30 -27.33744 153.15565 828 ft 135 kts 203°
2026-04-28 19:30 -27.34595 153.15090 671 ft 138 kts 206°
2026-04-28 19:30 -27.35439 153.14600 487 ft 134 kts 208°
2026-04-28 19:30 -27.36270 153.14124 330 ft 135 kts 205°
2026-04-28 19:31 -27.37113 153.13639 151 ft 137 kts 207°
2026-04-28 19:31 -27.37944 153.13163 24 ft 125 kts 207°
2026-04-28 19:31 -27.38607 153.12778 22 ft 91 kts 207°
2026-04-28 19:31 -27.39066 153.12518 19 ft 57 kts 207°
2026-04-28 19:32 -27.39308 153.12379 20 ft 22 kts 206°
2026-04-28 19:32 -27.39379 153.12337 19 ft 11 kts 208°
2026-04-28 19:32 -27.39488 153.12274 20 ft 23 kts 207°
2026-04-28 19:32 -27.39585 153.12142 19 ft 23 kts 275°
2026-04-28 19:33 -27.39516 153.11982 19 ft 22 kts 298°
2026-04-28 19:33 -27.39586 153.11853 17 ft 22 kts 210°
2026-04-28 19:33 -27.39719 153.11776 17 ft 21 kts 207°
2026-04-28 19:33 -27.39858 153.11695 18 ft 24 kts 207°
2026-04-28 19:34 -27.40013 153.11607 19 ft 26 kts 206°
2026-04-28 19:34 -27.40178 153.11512 17 ft 28 kts 208°
2026-04-28 19:34 -27.40355 153.11413 17 ft 29 kts 207°
2026-04-28 19:34 -27.40538 153.11311 17 ft 29 kts 208°
2026-04-28 19:35 -27.40559 153.11118 17 ft 25 kts 236°
2026-04-28 19:35 -27.40668 153.10974 17 ft 23 kts 238°
2026-04-28 19:35 -27.40719 153.10850 17 ft 10 kts 302°
2026-04-28 19:35 -27.40665 153.10812 18 ft 6 kts 329°
2026-04-28 19:36 -27.40663 153.10811 18 ft 0 kts 329°